Terug naar catalogus

ATLAS CENTAUR R/B

ActiefGTO
NORAD 6058·ROCKET BODY·🇺🇸 United States

Gelanceerd Jun 13, 1972 vanaf Cape Canaveral Space Force Station

Loading…

TLE

VerouderdSource: Space-Track

Epoch: Sep 13, 2026, 22:33 UTC

1 06058U 72041B   26256.93969842 -.00000080  00000-0  12990-2 0  9996
2 06058  26.3413 202.8870 7178880 148.8881 287.3861  2.22595301439374

Volg ATLAS CENTAUR R/B in realtime met AllMySat

Download on the App Store